Year,Month,Day,Hour,Minute,Value (Times are PST for temperature in C)
2006,05,02,00,00,6.70
2006,05,02,00,01,6.70
2006,05,02,00,02,6.60
2006,05,02,00,03,6.60
2006,05,02,00,04,6.60
2006,05,02,00,05,6.50
2006,05,02,00,06,6.40
2006,05,02,00,07,6.40
2006,05,02,00,08,6.40
2006,05,02,00,09,6.40
2006,05,02,00,10,6.30
2006,05,02,00,11,6.30
2006,05,02,00,12,6.30
2006,05,02,00,13,6.20
2006,05,02,00,14,6.20
2006,05,02,00,15,6.20
2006,05,02,00,16,6.20
2006,05,02,00,17,6.20
2006,05,02,00,18,6.30
2006,05,02,00,19,6.30
2006,05,02,00,20,6.30
2006,05,02,00,21,6.30
2006,05,02,00,22,6.30
2006,05,02,00,23,6.30
2006,05,02,00,24,6.30
2006,05,02,00,25,6.30
2006,05,02,00,26,6.30
2006,05,02,00,27,6.30
2006,05,02,00,28,6.30
2006,05,02,00,29,6.20
2006,05,02,00,30,6.20
2006,05,02,00,31,6.20
2006,05,02,00,32,6.20
2006,05,02,00,33,6.20
2006,05,02,00,34,6.20
2006,05,02,00,35,6.20
2006,05,02,00,36,6.20
2006,05,02,00,37,6.20
2006,05,02,00,38,6.20
2006,05,02,00,39,6.20
2006,05,02,00,40,6.20
2006,05,02,00,41,6.20
2006,05,02,00,42,6.20
2006,05,02,00,43,6.20
2006,05,02,00,44,6.20
2006,05,02,00,45,6.20
2006,05,02,00,46,6.20
2006,05,02,00,47,6.20
2006,05,02,00,48,6.10
2006,05,02,00,49,6.10
2006,05,02,00,50,6.00
2006,05,02,00,51,5.90
2006,05,02,00,52,5.90
2006,05,02,00,53,5.80
2006,05,02,00,54,5.70
2006,05,02,00,55,5.70
2006,05,02,00,56,5.70
2006,05,02,00,57,5.60
2006,05,02,00,58,5.60
2006,05,02,00,59,5.50
2006,05,02,01,00,5.50
2006,05,02,01,01,5.40
2006,05,02,01,02,5.40
2006,05,02,01,03,5.40
2006,05,02,01,04,5.30
2006,05,02,01,05,5.30
2006,05,02,01,06,5.20
2006,05,02,01,07,5.20
2006,05,02,01,08,5.10
2006,05,02,01,09,5.10
2006,05,02,01,10,5.10
2006,05,02,01,11,5.00
2006,05,02,01,12,4.90
2006,05,02,01,13,4.90
2006,05,02,01,14,4.90
2006,05,02,01,15,4.90
2006,05,02,01,16,4.80
2006,05,02,01,17,4.80
2006,05,02,01,18,4.80
2006,05,02,01,19,4.60
2006,05,02,01,20,4.60
2006,05,02,01,21,4.60
2006,05,02,01,22,4.60
2006,05,02,01,23,4.60
2006,05,02,01,24,4.50
2006,05,02,01,25,4.50
2006,05,02,01,26,4.50
2006,05,02,01,27,4.50
2006,05,02,01,28,4.40
2006,05,02,01,29,4.40
2006,05,02,01,30,4.30
2006,05,02,01,31,4.30
2006,05,02,01,32,4.30
2006,05,02,01,33,4.20
2006,05,02,01,34,4.20
2006,05,02,01,35,4.20
2006,05,02,01,36,4.20
2006,05,02,01,37,4.20
2006,05,02,01,38,4.20
2006,05,02,01,39,4.20
2006,05,02,01,40,4.20
2006,05,02,01,41,4.20
2006,05,02,01,42,4.20
2006,05,02,01,43,4.20
2006,05,02,01,44,4.20
2006,05,02,01,45,4.20
2006,05,02,01,46,4.20
2006,05,02,01,47,4.20
2006,05,02,01,48,4.20
2006,05,02,01,49,4.20
2006,05,02,01,50,4.20
2006,05,02,01,51,4.20
2006,05,02,01,52,4.20
2006,05,02,01,53,4.20
2006,05,02,01,54,4.20
2006,05,02,01,55,4.20
2006,05,02,01,56,4.20
2006,05,02,01,57,4.10
2006,05,02,01,58,4.10
2006,05,02,01,59,4.10
2006,05,02,02,00,4.00
2006,05,02,02,01,4.00
2006,05,02,02,02,4.00
2006,05,02,02,03,3.90
2006,05,02,02,04,3.90
2006,05,02,02,05,3.90
2006,05,02,02,06,3.90
2006,05,02,02,07,3.80
2006,05,02,02,08,3.80
2006,05,02,02,09,3.80
2006,05,02,02,10,3.80
2006,05,02,02,11,3.80
2006,05,02,02,12,3.80
2006,05,02,02,13,3.80
2006,05,02,02,14,3.80
2006,05,02,02,15,3.70
2006,05,02,02,16,3.70
2006,05,02,02,17,3.50
2006,05,02,02,18,3.50
2006,05,02,02,19,3.50
2006,05,02,02,20,3.50
2006,05,02,02,21,3.50
2006,05,02,02,22,3.50
2006,05,02,02,23,3.50
2006,05,02,02,24,3.50
2006,05,02,02,25,3.50
2006,05,02,02,26,3.50
2006,05,02,02,27,3.50
2006,05,02,02,28,3.50
2006,05,02,02,29,3.50
2006,05,02,02,30,3.50
2006,05,02,02,31,3.40
2006,05,02,02,32,3.40
2006,05,02,02,33,3.40
2006,05,02,02,34,3.40
2006,05,02,02,35,3.40
2006,05,02,02,36,3.40
2006,05,02,02,37,3.40
2006,05,02,02,38,3.40
2006,05,02,02,39,3.40
2006,05,02,02,40,3.40
2006,05,02,02,41,3.40
2006,05,02,02,42,3.30
2006,05,02,02,43,3.30
2006,05,02,02,44,3.30
2006,05,02,02,45,3.30
2006,05,02,02,46,3.30
2006,05,02,02,47,3.30
2006,05,02,02,48,3.30
2006,05,02,02,49,3.30
2006,05,02,02,50,3.30
2006,05,02,02,51,3.30
2006,05,02,02,52,3.30
2006,05,02,02,53,3.30
2006,05,02,02,54,3.30
2006,05,02,02,55,3.30
2006,05,02,02,56,3.30
2006,05,02,02,57,3.30
2006,05,02,02,58,3.30
2006,05,02,02,59,3.20
2006,05,02,03,00,3.20
2006,05,02,03,01,3.20
2006,05,02,03,02,3.20
2006,05,02,03,03,3.20
2006,05,02,03,04,3.10
2006,05,02,03,05,3.10
2006,05,02,03,06,3.10
2006,05,02,03,07,3.10
2006,05,02,03,08,3.10
2006,05,02,03,09,3.10
2006,05,02,03,10,3.10
2006,05,02,03,11,3.10
2006,05,02,03,12,3.10
2006,05,02,03,13,3.00
2006,05,02,03,14,2.90
2006,05,02,03,15,2.90
2006,05,02,03,16,2.90
2006,05,02,03,17,3.00
2006,05,02,03,18,3.00
2006,05,02,03,19,3.10
2006,05,02,03,20,3.00
2006,05,02,03,21,2.90
2006,05,02,03,22,2.90
2006,05,02,03,23,2.90
2006,05,02,03,24,2.90
2006,05,02,03,25,2.90
2006,05,02,03,26,2.90
2006,05,02,03,27,2.90
2006,05,02,03,28,2.90
2006,05,02,03,29,2.90
2006,05,02,03,30,2.90
2006,05,02,03,31,2.90
2006,05,02,03,32,2.90
2006,05,02,03,33,2.90
2006,05,02,03,34,2.90
2006,05,02,03,35,2.90
2006,05,02,03,36,2.90
2006,05,02,03,37,2.90
2006,05,02,03,38,2.80
2006,05,02,03,39,2.80
2006,05,02,03,40,2.80
2006,05,02,03,41,2.80
2006,05,02,03,42,2.80
2006,05,02,03,43,2.70
2006,05,02,03,44,2.70
2006,05,02,03,45,2.70
2006,05,02,03,46,2.70
2006,05,02,03,47,2.70
2006,05,02,03,48,2.70
2006,05,02,03,49,2.60
2006,05,02,03,50,2.60
2006,05,02,03,51,2.60
2006,05,02,03,52,2.60
2006,05,02,03,53,2.60
2006,05,02,03,54,2.60
2006,05,02,03,55,2.50
2006,05,02,03,56,2.50
2006,05,02,03,57,2.50
2006,05,02,03,58,2.50
2006,05,02,03,59,2.50
2006,05,02,04,00,2.50
2006,05,02,04,01,2.40
2006,05,02,04,02,2.40
2006,05,02,04,03,2.40
2006,05,02,04,04,2.40
2006,05,02,04,05,2.40
2006,05,02,04,06,2.40
2006,05,02,04,07,2.40
2006,05,02,04,08,2.40
2006,05,02,04,09,2.40
2006,05,02,04,10,2.40
2006,05,02,04,11,2.40
2006,05,02,04,12,2.30
2006,05,02,04,13,2.30
2006,05,02,04,14,2.30
2006,05,02,04,15,2.40
2006,05,02,04,16,2.40
2006,05,02,04,17,2.40
2006,05,02,04,18,2.40
2006,05,02,04,19,2.40
2006,05,02,04,20,2.40
2006,05,02,04,21,2.50
2006,05,02,04,22,2.50
2006,05,02,04,23,2.50
2006,05,02,04,24,2.50
2006,05,02,04,25,2.50
2006,05,02,04,26,2.50
2006,05,02,04,27,2.50
2006,05,02,04,28,2.50
2006,05,02,04,29,2.50
2006,05,02,04,30,2.50
2006,05,02,04,31,2.50
2006,05,02,04,32,2.50
2006,05,02,04,33,2.50
2006,05,02,04,34,2.40
2006,05,02,04,35,2.40
2006,05,02,04,36,2.40
2006,05,02,04,37,2.40
2006,05,02,04,38,2.30
2006,05,02,04,39,2.30
2006,05,02,04,40,2.30
2006,05,02,04,41,2.30
2006,05,02,04,42,2.20
2006,05,02,04,43,2.20
2006,05,02,04,44,2.20
2006,05,02,04,45,2.20
2006,05,02,04,46,2.20
2006,05,02,04,47,2.10
2006,05,02,04,48,2.10
2006,05,02,04,49,2.10
2006,05,02,04,50,2.10
2006,05,02,04,51,2.10
2006,05,02,04,52,2.10
2006,05,02,04,53,2.10
2006,05,02,04,54,2.10
2006,05,02,04,55,2.10
2006,05,02,04,56,2.10
2006,05,02,04,57,2.10
2006,05,02,04,58,2.00
2006,05,02,04,59,2.00
2006,05,02,05,00,2.00
2006,05,02,05,01,2.00
2006,05,02,05,02,2.00
2006,05,02,05,03,2.00
2006,05,02,05,04,2.00
2006,05,02,05,05,2.00
2006,05,02,05,06,1.90
2006,05,02,05,07,1.90
2006,05,02,05,08,1.80
2006,05,02,05,09,1.80
2006,05,02,05,10,1.90
2006,05,02,05,11,1.90
2006,05,02,05,12,1.90
2006,05,02,05,13,1.90
2006,05,02,05,14,1.90
2006,05,02,05,15,1.90
2006,05,02,05,16,1.90
2006,05,02,05,17,1.80
2006,05,02,05,18,1.80
2006,05,02,05,19,1.80
2006,05,02,05,20,1.80
2006,05,02,05,21,1.80
2006,05,02,05,22,1.80
2006,05,02,05,23,1.70
2006,05,02,05,24,1.70
2006,05,02,05,25,1.70
2006,05,02,05,26,1.70
2006,05,02,05,27,1.70
2006,05,02,05,28,1.70
2006,05,02,05,29,1.70
2006,05,02,05,30,1.70
2006,05,02,05,31,1.70
2006,05,02,05,32,1.60
2006,05,02,05,33,1.60
2006,05,02,05,34,1.60
2006,05,02,05,35,1.60
2006,05,02,05,36,1.50
2006,05,02,05,37,1.50
2006,05,02,05,38,1.50
2006,05,02,05,39,1.60
2006,05,02,05,40,1.60
2006,05,02,05,41,1.60
2006,05,02,05,42,1.60
2006,05,02,05,43,1.50
2006,05,02,05,44,1.50
2006,05,02,05,45,1.50
2006,05,02,05,46,1.60
2006,05,02,05,47,1.60
2006,05,02,05,48,1.60
2006,05,02,05,49,1.60
2006,05,02,05,50,1.60
2006,05,02,05,51,1.60
2006,05,02,05,52,1.70
2006,05,02,05,53,1.70
2006,05,02,05,54,1.70
2006,05,02,05,55,1.70
2006,05,02,05,56,1.70
2006,05,02,05,57,1.70
2006,05,02,05,58,1.60
2006,05,02,05,59,1.60
2006,05,02,06,00,1.60
2006,05,02,06,01,1.60
2006,05,02,06,02,1.60
2006,05,02,06,03,1.60
2006,05,02,06,04,1.60
2006,05,02,06,05,1.60
2006,05,02,06,06,1.60
2006,05,02,06,07,1.60
2006,05,02,06,08,1.60
2006,05,02,06,09,1.60
2006,05,02,06,10,1.60
2006,05,02,06,11,1.60
2006,05,02,06,12,1.60
2006,05,02,06,13,1.60
2006,05,02,06,14,1.60
2006,05,02,06,15,1.60
2006,05,02,06,16,1.60
2006,05,02,06,17,1.60
2006,05,02,06,18,1.60
2006,05,02,06,19,1.60
2006,05,02,06,20,1.60
2006,05,02,06,21,1.60
2006,05,02,06,22,1.70
2006,05,02,06,23,1.70
2006,05,02,06,24,1.70
2006,05,02,06,25,1.70
2006,05,02,06,26,1.70
2006,05,02,06,27,1.70
2006,05,02,06,28,1.70
2006,05,02,06,29,1.70
2006,05,02,06,30,1.70
2006,05,02,06,31,1.80
2006,05,02,06,32,1.80
2006,05,02,06,33,1.80
2006,05,02,06,34,1.80
2006,05,02,06,35,1.90
2006,05,02,06,36,1.90
2006,05,02,06,37,1.90
2006,05,02,06,38,2.00
2006,05,02,06,39,2.00
2006,05,02,06,40,2.10
2006,05,02,06,41,2.10
2006,05,02,06,42,2.10
2006,05,02,06,43,2.20
2006,05,02,06,44,2.20
2006,05,02,06,45,2.20
2006,05,02,06,46,2.20
2006,05,02,06,47,2.20
2006,05,02,06,48,2.30
2006,05,02,06,49,2.30
2006,05,02,06,50,2.30
2006,05,02,06,51,2.30
2006,05,02,06,52,2.40
2006,05,02,06,53,2.40
2006,05,02,06,54,2.40
2006,05,02,06,55,2.40
2006,05,02,06,56,2.50
2006,05,02,06,57,2.50
2006,05,02,06,58,2.50
2006,05,02,06,59,2.60
2006,05,02,07,00,2.70
2006,05,02,07,01,2.70
2006,05,02,07,02,2.70
2006,05,02,07,03,2.80
2006,05,02,07,04,2.80
2006,05,02,07,05,2.80
2006,05,02,07,06,2.80
2006,05,02,07,07,2.90
2006,05,02,07,08,2.90
2006,05,02,07,09,2.90
2006,05,02,07,10,3.10
2006,05,02,07,11,3.10
2006,05,02,07,12,3.20
2006,05,02,07,13,3.30
2006,05,02,07,14,3.40
2006,05,02,07,15,3.50
2006,05,02,07,16,3.50
2006,05,02,07,17,3.60
2006,05,02,07,18,3.70
2006,05,02,07,19,3.80
2006,05,02,07,20,3.90
2006,05,02,07,21,4.00
2006,05,02,07,22,4.00
2006,05,02,07,23,4.10
2006,05,02,07,24,4.10
2006,05,02,07,25,4.20
2006,05,02,07,26,4.20
2006,05,02,07,27,4.20
2006,05,02,07,28,4.30
2006,05,02,07,29,4.40
2006,05,02,07,30,4.50
2006,05,02,07,31,4.50
2006,05,02,07,32,4.70
2006,05,02,07,33,4.80
2006,05,02,07,34,5.10
2006,05,02,07,35,5.30
2006,05,02,07,36,5.50
2006,05,02,07,37,5.70
2006,05,02,07,38,5.90
2006,05,02,07,39,6.20
2006,05,02,07,40,6.30
2006,05,02,07,41,6.40
2006,05,02,07,42,6.60
2006,05,02,07,43,6.70
2006,05,02,07,44,6.80
2006,05,02,07,45,6.80
2006,05,02,07,46,6.80
2006,05,02,07,47,6.90
2006,05,02,07,48,6.90
2006,05,02,07,49,7.00
2006,05,02,07,50,7.00
2006,05,02,07,51,7.00
2006,05,02,07,52,7.10
2006,05,02,07,53,7.10
2006,05,02,07,54,7.10
2006,05,02,07,55,7.20
2006,05,02,07,56,7.20
2006,05,02,07,57,7.30
2006,05,02,07,58,7.30
2006,05,02,07,59,7.30
2006,05,02,08,00,7.30
2006,05,02,08,01,7.40
2006,05,02,08,02,7.40
2006,05,02,08,03,7.40
2006,05,02,08,04,7.50
2006,05,02,08,05,7.50
2006,05,02,08,06,7.50
2006,05,02,08,07,7.60
2006,05,02,08,08,7.60
2006,05,02,08,09,7.60
2006,05,02,08,10,7.60
2006,05,02,08,11,7.60
2006,05,02,08,12,7.70
2006,05,02,08,13,7.70
2006,05,02,08,14,7.70
2006,05,02,08,15,7.70
2006,05,02,08,16,7.70
2006,05,02,08,17,7.70
2006,05,02,08,18,7.70
2006,05,02,08,19,7.70
2006,05,02,08,20,7.70
2006,05,02,08,21,7.70
2006,05,02,08,22,7.70
2006,05,02,08,23,7.70
2006,05,02,08,24,7.80
2006,05,02,08,25,7.70
2006,05,02,08,26,7.70
2006,05,02,08,27,7.70
2006,05,02,08,28,7.70
2006,05,02,08,29,7.70
2006,05,02,08,30,7.80
2006,05,02,08,31,7.80
2006,05,02,08,32,7.80
2006,05,02,08,33,7.80
2006,05,02,08,34,7.90
2006,05,02,08,35,7.90
2006,05,02,08,36,7.90
2006,05,02,08,37,8.00
2006,05,02,08,38,8.00
2006,05,02,08,39,7.90
2006,05,02,08,40,8.00
2006,05,02,08,41,8.00
2006,05,02,08,42,8.00
2006,05,02,08,43,8.10
2006,05,02,08,44,8.20
2006,05,02,08,45,8.20
2006,05,02,08,46,8.20
2006,05,02,08,47,8.20
2006,05,02,08,48,8.30
2006,05,02,08,49,8.30
2006,05,02,08,50,8.30
2006,05,02,08,51,8.30
2006,05,02,08,52,8.30
2006,05,02,08,53,8.30
2006,05,02,08,54,8.30
2006,05,02,08,55,8.30
2006,05,02,08,56,8.40
2006,05,02,08,57,8.50
2006,05,02,08,58,8.50
2006,05,02,08,59,8.50
2006,05,02,09,00,8.50
2006,05,02,09,01,8.50
2006,05,02,09,02,8.50
2006,05,02,09,03,8.60
2006,05,02,09,04,8.50
2006,05,02,09,05,8.50
2006,05,02,09,06,8.50
2006,05,02,09,07,8.50
2006,05,02,09,08,8.50
2006,05,02,09,09,8.50
2006,05,02,09,10,8.50
2006,05,02,09,11,8.50
2006,05,02,09,12,8.50
2006,05,02,09,13,8.60
2006,05,02,09,14,8.60
2006,05,02,09,15,8.70
2006,05,02,09,16,8.70
2006,05,02,09,17,8.70
2006,05,02,09,18,8.70
2006,05,02,09,19,8.70
2006,05,02,09,20,8.80
2006,05,02,09,21,8.90
2006,05,02,09,22,8.90
2006,05,02,09,23,8.90
2006,05,02,09,24,8.90
2006,05,02,09,25,8.90
2006,05,02,09,26,8.90
2006,05,02,09,27,8.90
2006,05,02,09,28,8.90
2006,05,02,09,29,8.90
2006,05,02,09,30,9.00
2006,05,02,09,31,9.00
2006,05,02,09,32,8.90
2006,05,02,09,33,8.90
2006,05,02,09,34,8.90
2006,05,02,09,35,8.90
2006,05,02,09,36,8.90
2006,05,02,09,37,8.90
2006,05,02,09,38,8.90
2006,05,02,09,39,8.90
2006,05,02,09,40,8.90
2006,05,02,09,41,9.00
2006,05,02,09,42,9.00
2006,05,02,09,43,8.90
2006,05,02,09,44,8.90
2006,05,02,09,45,8.90
2006,05,02,09,46,8.90
2006,05,02,09,47,9.00
2006,05,02,09,48,9.00
2006,05,02,09,49,9.10
2006,05,02,09,50,9.10
2006,05,02,09,51,9.20
2006,05,02,09,52,9.20
2006,05,02,09,53,9.10
2006,05,02,09,54,9.10
2006,05,02,09,55,9.10
2006,05,02,09,56,9.10
2006,05,02,09,57,9.10
2006,05,02,09,58,9.20
2006,05,02,09,59,9.20
2006,05,02,10,00,9.20
2006,05,02,10,01,9.20
2006,05,02,10,02,9.20
2006,05,02,10,03,9.10
2006,05,02,10,04,9.00
2006,05,02,10,05,9.00
2006,05,02,10,06,9.00
2006,05,02,10,07,9.10
2006,05,02,10,08,9.20
2006,05,02,10,09,9.20
2006,05,02,10,10,9.20
2006,05,02,10,11,9.20
2006,05,02,10,12,9.20
2006,05,02,10,13,9.20
2006,05,02,10,14,9.20
2006,05,02,10,15,9.30
2006,05,02,10,16,9.30
2006,05,02,10,17,9.40
2006,05,02,10,18,9.40
2006,05,02,10,19,9.40
2006,05,02,10,20,9.30
2006,05,02,10,21,9.20
2006,05,02,10,22,9.20
2006,05,02,10,23,9.20
2006,05,02,10,24,9.20
2006,05,02,10,25,9.20
2006,05,02,10,26,9.30
2006,05,02,10,27,9.40
2006,05,02,10,28,9.40
2006,05,02,10,29,9.50
2006,05,02,10,30,9.60
2006,05,02,10,31,9.60
2006,05,02,10,32,9.50
2006,05,02,10,33,9.50
2006,05,02,10,34,9.60
2006,05,02,10,35,9.60
2006,05,02,10,36,9.60
2006,05,02,10,37,9.60
2006,05,02,10,38,9.60
2006,05,02,10,39,9.60
2006,05,02,10,40,9.70
2006,05,02,10,41,9.60
2006,05,02,10,42,9.70
2006,05,02,10,43,9.60
2006,05,02,10,44,9.60
2006,05,02,10,45,9.60
2006,05,02,10,46,9.60
2006,05,02,10,47,9.70
2006,05,02,10,48,9.70
2006,05,02,10,49,9.70
2006,05,02,10,50,9.70
2006,05,02,10,51,9.70
2006,05,02,10,52,9.70
2006,05,02,10,53,9.70
2006,05,02,10,54,9.70
2006,05,02,10,55,9.70
2006,05,02,10,56,9.80
2006,05,02,10,57,9.90
2006,05,02,10,58,9.90
2006,05,02,10,59,10.00
2006,05,02,11,00,9.90
2006,05,02,11,01,9.80
2006,05,02,11,02,9.80
2006,05,02,11,03,9.80
2006,05,02,11,04,9.80
2006,05,02,11,05,9.70
2006,05,02,11,06,9.70
2006,05,02,11,07,9.70
2006,05,02,11,08,9.80
2006,05,02,11,09,9.80
2006,05,02,11,10,9.90
2006,05,02,11,11,9.90
2006,05,02,11,12,9.80
2006,05,02,11,13,9.80
2006,05,02,11,14,9.90
2006,05,02,11,15,9.90
2006,05,02,11,16,10.10
2006,05,02,11,17,10.00
2006,05,02,11,18,9.90
2006,05,02,11,19,9.90
2006,05,02,11,20,9.80
2006,05,02,11,21,9.90
2006,05,02,11,22,10.00
2006,05,02,11,23,10.20
2006,05,02,11,24,10.20
2006,05,02,11,25,10.30
2006,05,02,11,26,10.20
2006,05,02,11,27,10.20
2006,05,02,11,28,10.20
2006,05,02,11,29,10.20
2006,05,02,11,30,10.10
2006,05,02,11,31,10.10
2006,05,02,11,32,10.00
2006,05,02,11,33,10.00
2006,05,02,11,34,10.10
2006,05,02,11,35,10.10
2006,05,02,11,36,10.20
2006,05,02,11,37,10.30
2006,05,02,11,38,10.20
2006,05,02,11,39,10.10
2006,05,02,11,40,10.10
2006,05,02,11,41,10.10
2006,05,02,11,42,10.10
2006,05,02,11,43,10.20
2006,05,02,11,44,10.20
2006,05,02,11,45,10.10
2006,05,02,11,46,10.10
2006,05,02,11,47,10.00
2006,05,02,11,48,9.90
2006,05,02,11,49,9.90
2006,05,02,11,50,9.90
2006,05,02,11,51,9.90
2006,05,02,11,52,9.90
2006,05,02,11,53,9.90
2006,05,02,11,54,10.10
2006,05,02,11,55,10.10
2006,05,02,11,56,10.10
2006,05,02,11,57,10.10
2006,05,02,11,58,10.10
2006,05,02,11,59,10.10
2006,05,02,12,00,10.20
2006,05,02,12,01,10.20
2006,05,02,12,02,10.30
2006,05,02,12,03,10.20
2006,05,02,12,04,10.20
2006,05,02,12,05,10.10
2006,05,02,12,06,10.20
2006,05,02,12,07,10.20
2006,05,02,12,08,10.30
2006,05,02,12,09,10.30
2006,05,02,12,10,10.30
2006,05,02,12,11,10.30
2006,05,02,12,12,10.30
2006,05,02,12,13,10.30
2006,05,02,12,14,10.30
2006,05,02,12,15,10.40
2006,05,02,12,16,10.40
2006,05,02,12,17,10.40
2006,05,02,12,18,10.60
2006,05,02,12,19,10.60
2006,05,02,12,20,10.60
2006,05,02,12,21,10.60
2006,05,02,12,22,10.50
2006,05,02,12,23,10.40
2006,05,02,12,24,10.40
2006,05,02,12,25,10.40
2006,05,02,12,26,10.50
2006,05,02,12,27,10.60
2006,05,02,12,28,10.60
2006,05,02,12,29,10.60
2006,05,02,12,30,10.60
2006,05,02,12,31,10.60
2006,05,02,12,32,10.40
2006,05,02,12,33,10.60
2006,05,02,12,34,10.60
2006,05,02,12,35,10.50
2006,05,02,12,36,10.40
2006,05,02,12,37,10.40
2006,05,02,12,38,10.50
2006,05,02,12,39,10.40
2006,05,02,12,40,10.60
2006,05,02,12,41,10.60
2006,05,02,12,42,10.60
2006,05,02,12,43,10.70
2006,05,02,12,44,10.80
2006,05,02,12,45,10.80
2006,05,02,12,46,10.80
2006,05,02,12,47,10.80
2006,05,02,12,48,10.80
2006,05,02,12,49,10.80
2006,05,02,12,50,10.90
2006,05,02,12,51,10.90
2006,05,02,12,52,10.80
2006,05,02,12,53,10.80
2006,05,02,12,54,10.80
2006,05,02,12,55,10.70
2006,05,02,12,56,10.80
2006,05,02,12,57,10.90
2006,05,02,12,58,10.90
2006,05,02,12,59,10.90
2006,05,02,13,00,11.10
2006,05,02,13,01,11.10
2006,05,02,13,02,11.20
2006,05,02,13,03,11.30
2006,05,02,13,04,11.30
2006,05,02,13,05,11.30
2006,05,02,13,06,11.30
2006,05,02,13,07,11.20
2006,05,02,13,08,11.30
2006,05,02,13,09,11.40
2006,05,02,13,10,11.30
2006,05,02,13,11,11.30
2006,05,02,13,12,11.30
2006,05,02,13,13,11.40
2006,05,02,13,14,11.50
2006,05,02,13,15,11.60
2006,05,02,13,16,11.60
2006,05,02,13,17,11.70
2006,05,02,13,18,11.70
2006,05,02,13,19,11.80
2006,05,02,13,20,11.80
2006,05,02,13,21,11.70
2006,05,02,13,22,11.60
2006,05,02,13,23,11.60
2006,05,02,13,24,11.60
2006,05,02,13,25,11.60
2006,05,02,13,26,11.70
2006,05,02,13,27,11.80
2006,05,02,13,28,11.90
2006,05,02,13,29,12.00
2006,05,02,13,30,12.10
2006,05,02,13,31,12.20
2006,05,02,13,32,12.20
2006,05,02,13,33,12.20
2006,05,02,13,34,12.10
2006,05,02,13,35,12.10
2006,05,02,13,36,12.10
2006,05,02,13,37,12.20
2006,05,02,13,38,12.30
2006,05,02,13,39,12.40
2006,05,02,13,40,12.50
2006,05,02,13,41,12.50
2006,05,02,13,42,12.50
2006,05,02,13,43,12.50
2006,05,02,13,44,12.40
2006,05,02,13,45,12.40
2006,05,02,13,46,12.50
2006,05,02,13,47,12.60
2006,05,02,13,48,12.60
2006,05,02,13,49,12.60
2006,05,02,13,50,12.60
2006,05,02,13,51,12.50
2006,05,02,13,52,12.50
2006,05,02,13,53,12.50
2006,05,02,13,54,12.40
2006,05,02,13,55,12.40
2006,05,02,13,56,12.50
2006,05,02,13,57,12.60
2006,05,02,13,58,12.70
2006,05,02,13,59,12.80
2006,05,02,14,00,12.90
2006,05,02,14,01,12.90
2006,05,02,14,02,12.90
2006,05,02,14,03,12.80
2006,05,02,14,04,12.60
2006,05,02,14,05,12.60
2006,05,02,14,06,12.50
2006,05,02,14,07,12.50
2006,05,02,14,08,12.40
2006,05,02,14,09,12.30
2006,05,02,14,10,12.30
2006,05,02,14,11,12.20
2006,05,02,14,12,12.20
2006,05,02,14,13,12.20
2006,05,02,14,14,12.30
2006,05,02,14,15,12.40
2006,05,02,14,16,12.40
2006,05,02,14,17,12.30
2006,05,02,14,18,12.30
2006,05,02,14,19,12.50
2006,05,02,14,20,12.50
2006,05,02,14,21,12.60
2006,05,02,14,22,12.70
2006,05,02,14,23,12.80
2006,05,02,14,24,12.90
2006,05,02,14,25,12.90
2006,05,02,14,26,13.00
2006,05,02,14,27,13.10
2006,05,02,14,28,13.10
2006,05,02,14,29,13.10
2006,05,02,14,30,13.20
2006,05,02,14,31,13.20
2006,05,02,14,32,13.30
2006,05,02,14,33,13.30
2006,05,02,14,34,13.30
2006,05,02,14,35,13.30
2006,05,02,14,36,13.10
2006,05,02,14,37,13.10
2006,05,02,14,38,13.00
2006,05,02,14,39,13.00
2006,05,02,14,40,12.90
2006,05,02,14,41,12.80
2006,05,02,14,42,12.80
2006,05,02,14,43,12.80
2006,05,02,14,44,12.80
2006,05,02,14,45,12.80
2006,05,02,14,46,12.80
2006,05,02,14,47,12.80
2006,05,02,14,48,12.70
2006,05,02,14,49,12.70
2006,05,02,14,50,12.60
2006,05,02,14,51,12.60
2006,05,02,14,52,12.60
2006,05,02,14,53,12.60
2006,05,02,14,54,12.60
2006,05,02,14,55,12.60
2006,05,02,14,56,12.80
2006,05,02,14,57,12.90
2006,05,02,14,58,13.10
2006,05,02,14,59,13.20
2006,05,02,15,00,13.20
2006,05,02,15,01,13.30
2006,05,02,15,02,13.30
2006,05,02,15,03,13.30
2006,05,02,15,04,13.30
2006,05,02,15,05,13.30
2006,05,02,15,06,13.30
2006,05,02,15,07,13.30
2006,05,02,15,08,13.30
2006,05,02,15,09,13.30
2006,05,02,15,10,13.40
2006,05,02,15,11,13.40
2006,05,02,15,12,13.40
2006,05,02,15,13,13.40
2006,05,02,15,14,13.40
2006,05,02,15,15,13.30
2006,05,02,15,16,13.30
2006,05,02,15,17,13.30
2006,05,02,15,18,13.30
2006,05,02,15,19,13.30
2006,05,02,15,20,13.30
2006,05,02,15,21,13.30
2006,05,02,15,22,13.30
2006,05,02,15,23,13.20
2006,05,02,15,24,13.20
2006,05,02,15,25,13.20
2006,05,02,15,26,13.20
2006,05,02,15,27,13.30
2006,05,02,15,28,13.30
2006,05,02,15,29,13.30
2006,05,02,15,30,13.40
2006,05,02,15,31,13.50
2006,05,02,15,32,13.50
2006,05,02,15,33,13.50
2006,05,02,15,34,13.50
2006,05,02,15,35,13.50
2006,05,02,15,36,13.40
2006,05,02,15,37,13.30
2006,05,02,15,38,13.40
2006,05,02,15,39,13.40
2006,05,02,15,40,13.40
2006,05,02,15,41,13.40
2006,05,02,15,42,13.50
2006,05,02,15,43,13.50
2006,05,02,15,44,13.60
2006,05,02,15,45,13.60
2006,05,02,15,46,13.60
2006,05,02,15,47,13.70
2006,05,02,15,48,13.70
2006,05,02,15,49,13.80
2006,05,02,15,50,13.90
2006,05,02,15,51,14.00
2006,05,02,15,52,13.90
2006,05,02,15,53,13.90
2006,05,02,15,54,13.90
2006,05,02,15,55,13.90
2006,05,02,15,56,13.90
2006,05,02,15,57,13.90
2006,05,02,15,58,14.00
2006,05,02,15,59,14.00
2006,05,02,16,00,14.00
2006,05,02,16,01,13.90
2006,05,02,16,02,14.00
2006,05,02,16,03,14.00
2006,05,02,16,04,14.00
2006,05,02,16,05,13.90
2006,05,02,16,06,13.80
2006,05,02,16,07,13.80
2006,05,02,16,08,13.90
2006,05,02,16,09,13.90
2006,05,02,16,10,14.00
2006,05,02,16,11,14.00
2006,05,02,16,12,14.00
2006,05,02,16,13,14.00
2006,05,02,16,14,14.00
2006,05,02,16,15,13.90
2006,05,02,16,16,13.90
2006,05,02,16,17,13.80
2006,05,02,16,18,13.70
2006,05,02,16,19,13.70
2006,05,02,16,20,13.70
2006,05,02,16,21,13.60
2006,05,02,16,22,13.60
2006,05,02,16,23,13.60
2006,05,02,16,24,13.60
2006,05,02,16,25,13.60
2006,05,02,16,26,13.60
2006,05,02,16,27,13.50
2006,05,02,16,28,13.50
2006,05,02,16,29,13.50
2006,05,02,16,30,13.60
2006,05,02,16,31,13.60
2006,05,02,16,32,13.60
2006,05,02,16,33,13.60
2006,05,02,16,34,13.60
2006,05,02,16,35,13.60
2006,05,02,16,36,13.60
2006,05,02,16,37,13.70
2006,05,02,16,38,13.70
2006,05,02,16,39,13.70
2006,05,02,16,40,13.70
2006,05,02,16,41,13.80
2006,05,02,16,42,13.90
2006,05,02,16,43,13.90
2006,05,02,16,44,14.00
2006,05,02,16,45,14.10
2006,05,02,16,46,14.20
2006,05,02,16,47,14.20
2006,05,02,16,48,14.20
2006,05,02,16,49,14.20
2006,05,02,16,50,14.30
2006,05,02,16,51,14.40
2006,05,02,16,52,14.50
2006,05,02,16,53,14.50
2006,05,02,16,54,14.50
2006,05,02,16,55,14.50
2006,05,02,16,56,14.40
2006,05,02,16,57,14.40
2006,05,02,16,58,14.40
2006,05,02,16,59,14.30
2006,05,02,17,00,14.30
2006,05,02,17,01,14.30
2006,05,02,17,02,14.50
2006,05,02,17,03,14.50
2006,05,02,17,04,14.50
2006,05,02,17,05,14.60
2006,05,02,17,06,14.50
2006,05,02,17,07,14.40
2006,05,02,17,08,14.40
2006,05,02,17,09,14.40
2006,05,02,17,10,14.50
2006,05,02,17,11,14.50
2006,05,02,17,12,14.60
2006,05,02,17,13,14.60
2006,05,02,17,14,14.50
2006,05,02,17,15,14.50
2006,05,02,17,16,14.40
2006,05,02,17,17,14.30
2006,05,02,17,18,14.20
2006,05,02,17,19,14.20
2006,05,02,17,20,14.20
2006,05,02,17,21,14.20
2006,05,02,17,22,14.20
2006,05,02,17,23,14.20
2006,05,02,17,24,14.30
2006,05,02,17,25,14.40
2006,05,02,17,26,14.50
2006,05,02,17,27,14.40
2006,05,02,17,28,14.40
2006,05,02,17,29,14.30
2006,05,02,17,30,14.30
2006,05,02,17,31,14.30
2006,05,02,17,32,14.30
2006,05,02,17,33,14.20
2006,05,02,17,34,14.20
2006,05,02,17,35,14.20
2006,05,02,17,36,14.20
2006,05,02,17,37,14.20
2006,05,02,17,38,14.20
2006,05,02,17,39,14.20
2006,05,02,17,40,14.20
2006,05,02,17,41,14.20
2006,05,02,17,42,14.20
2006,05,02,17,43,14.20
2006,05,02,17,44,14.30
2006,05,02,17,45,14.30
2006,05,02,17,46,14.40
2006,05,02,17,47,14.40
2006,05,02,17,48,14.40
2006,05,02,17,49,14.40